This demonstration page uses our WeatherBlox Daily Observations layout. Learn more.

40.92945, -100.16068

Hourly Observations for May 19, 2018

Temp ( °F °C ) Dew Point ( °F °C ) Humidity (%) Winds ( mph kmh ) Pressure ( in mb ) Visibility ( mi km ) Precip ( " mm )
12:15 am 00:15 Mostly Cloudy 62 16.5 59 15 91 91 E 12 19 29.85 1011 10 16.0934 0 0
12:35 am 00:35 Mostly Cloudy with Thunderstorms 62 16.8 59 15 89 89 E 7 11 29.85 1011 10 16.0934 0 0
12:55 am 00:55 Cloudy with Light Rain 63 17 59 15 88 88 E 10 17 29.85 1011 10 16.0934 0 0
1:15 am 01:15 Cloudy with Light Rain 62 16.7 59 15.1 90 90 E 9 15 29.88 1012 10 16.0934 0.02 0.508
1:35 am 01:35 Cloudy with Rain 62 16.5 59 15.2 92 92 E 7 11 29.88 1012 7 11.26538 0.06 1.524
1:55 am 01:55 Cloudy with Rain 61 16.2 59 15.2 94 94 ENE 3 6 29.88 1012 7 11.26538 0.1 2.54
2:15 am 02:15 Cloudy with Rain 61 16.1 59 15.2 94 94 Calm 29.88 1012 7 11.26538 0.04 1.016
2:35 am 02:35 Cloudy with Light Rain 61 16.1 60 15.3 95 95 Calm 29.88 1012 5 8.0467 0.07 1.778
2:55 am 02:55 Cloudy with Light Rain 61 16.1 60 15.5 96 96 ESE 3 6 29.88 1012 4 6.43736 0.13 3.302
3:15 am 03:15 Cloudy with Light Rain 61 16 59 15.1 94 94 SE 3 6 29.88 1012 5 8.0467 0.02 0.508
3:35 am 03:35 Cloudy with Heavy Rain 60 15.4 58 14.5 94 94 Calm 29.88 1012 2 3.21868 0.17 4.318
3:55 am 03:55 Cloudy with Rain 59 15.1 58 14.5 96 96 E 6 9 29.88 1012 7 11.26538 0.18 4.572
4:15 am 04:15 Cloudy with Rain 59 15.2 58 14.6 96 96 E 7 11 29.88 1012 5 8.0467 0.05 1.27
4:35 am 04:35 Cloudy with Rain 59 14.8 57 14.1 96 96 NE 6 9 29.88 1012 7 11.26538 0.09 2.286
4:55 am 04:55 Cloudy with Light Rain 59 15.1 58 14.5 96 96 NNE 9 15 29.88 1012 10 16.0934 0.12 3.048
5:15 am 05:15 Cloudy with Rain 60 15.5 58 14.7 95 95 NNE 7 11 29.88 1012 7 11.26538 0.02 0.508
5:35 am 05:35 Cloudy with Light Rain 60 15.3 58 14.7 96 96 NNE 9 15 29.88 1012 7 11.26538 0.04 1.016
5:55 am 05:55 Cloudy with Rain 60 15.4 59 14.8 96 96 NNE 13 20 29.88 1012 7 11.26538 0.07 1.778
6:15 am 06:15 Cloudy with Rain 59 15 58 14.3 96 96 NNE 15 24 29.88 1012 5 8.0467 0.06 1.524
6:35 am 06:35 Cloudy with Light Rain 58 14.6 57 14 96 96 NE 16 26 29.88 1012 7 11.26538 0.11 2.794
6:55 am 06:55 Cloudy with Light Rain 57 14 56 13.3 96 96 NNE 20 31 29.88 1012 7 11.26538 0.13 3.302
7:15 am 07:15 Cloudy with Rain 55 13 54 12.3 96 96 NE 12 19 29.88 1012 4 6.43736 0.06 1.524
7:35 am 07:35 Cloudy with Heavy Rain 55 12.6 54 12 96 96 NE 15 24 29.91 1013 2 3.21868 0.21 5.334
7:55 am 07:55 Cloudy with Heavy Rain 54 12.2 53 11.6 96 96 NNE 13 20 29.94 1014 1.75 2.816345 0.5 12.7
8:15 am 08:15 Cloudy with Rain 53 11.6 52 11 96 96 NNE 16 26 29.94 1014 5 8.0467 0.06 1.524
8:35 am 08:35 Cloudy with Heavy Rain 52 11.1 51 10.5 96 96 N 13 20 29.94 1014 2.5 4.02335 0.24 6.096
8:55 am 08:55 Cloudy with Rain 51 10.7 50 10.1 96 96 NNE 17 28 29.94 1014 7 11.26538 0.28 7.112
9:15 am 09:15 Cloudy with Light Rain 51 10.6 50 10 96 96 NE 9 15 29.97 1015 4 6.43736 0.05 1.27
9:35 am 09:35 Cloudy with Light Rain 51 10.5 50 10 97 97 NE 9 15 29.97 1015 5 8.0467 0.09 2.286
9:55 am 09:55 Cloudy with Drizzle 51 10.5 50 9.9 96 96 NE 13 20 29.97 1015 7 11.26538 0.1 2.54
10:15 am 10:15 Cloudy with Light Drizzle 51 10.3 49 9.6 95 95 NNE 13 20 29.97 1015 7 11.26538 0.01 0.254
10:35 am 10:35 Cloudy with Light Drizzle 51 10.3 49 9.6 95 95 NNE 16 26 29.97 1015 5 8.0467 0.01 0.254
10:55 am 10:55 Cloudy 51 10.5 49 9.7 95 95 NNE 15 24 29.97 1015 10 16.0934 0.01 0.254
11:15 am 11:15 Cloudy 51 10.5 49 9.6 94 94 NNE 13 20 29.97 1015 10 16.0934 0 0
11:35 am 11:35 Cloudy with Mist and Fog 51 10.5 49 9.6 94 94 NNE 15 24 29.97 1015 5 8.0467 0 0
11:55 am 11:55 Cloudy with Mist and Fog 50 10 48 9.1 94 94 NE 15 24 30 1016 5 8.0467 0 0
12:15 pm 12:15 Cloudy with Light Drizzle 50 10.2 49 9.5 95 95 NE 12 19 30.06 1018 2.5 4.02335 0.01 0.254
12:35 pm 12:35 Cloudy with Light Drizzle 50 10 49 9.3 95 95 NNE 16 26 30.06 1018 3 4.82802 0.02 0.508
12:55 pm 12:55 Cloudy with Mist and Fog 50 9.9 48 9.1 95 95 NNE 14 22 30.06 1018 4 6.43736 0.02 0.508
1:15 pm 13:15 Cloudy with Mist and Fog 50 10 49 9.3 95 95 NNE 14 22 30.06 1018 5 8.0467 0 0
1:35 pm 13:35 Cloudy 50 9.9 49 9.2 95 95 NE 16 26 30.06 1018 7 11.26538 0.01 0.254
1:55 pm 13:55 Cloudy 50 10.1 49 9.6 97 97 NNE 16 26 30.06 1018 10 16.0934 0.01 0.254
2:15 pm 14:15 Cloudy 50 10 49 9.5 97 97 NNE 15 24 30.06 1018 10 16.0934 0 0
2:35 pm 14:35 Cloudy with Light Rain 50 9.8 49 9.2 96 96 NNE 16 26 30.06 1018 3 4.82802 0 0
2:55 pm 14:55 Cloudy 50 9.8 49 9.3 97 97 NNE 15 24 30.06 1018 10 16.0934 0 0
3:15 pm 15:15 Cloudy with Light Rain 50 9.8 49 9.3 97 97 NE 15 24 30.06 1018 10 16.0934 0 0
3:35 pm 15:35 Cloudy 50 9.8 49 9.3 97 97 NNE 17 28 30.03 1017 10 16.0934 0 0
3:55 pm 15:55 Cloudy with Light Rain 50 10 49 9.4 96 96 NE 15 24 30.06 1018 7 11.26538 0 0
4:15 pm 16:15 Cloudy 50 10.2 49 9.6 96 96 NNE 20 31 30 1016 10 16.0934 0.01 0.254
4:35 pm 16:35 Cloudy 51 10.4 49 9.7 95 95 NNE 18 30 30 1016 10 16.0934 0.01 0.254
4:55 pm 16:55 Cloudy 51 10.3 49 9.5 95 95 NNE 16 26 30 1016 10 16.0934 0.01 0.254
5:15 pm 17:15 Cloudy 51 10.5 49 9.5 94 94 NNE 17 28 30 1016 10 16.0934 0 0
5:35 pm 17:35 Cloudy 51 10.7 49 9.4 92 92 NNE 17 28 30.03 1017 10 16.0934 0 0
5:55 pm 17:55 Cloudy 51 10.7 49 9.2 91 91 NNE 16 26 30.03 1017 10 16.0934 0 0
6:15 pm 18:15 Cloudy 51 10.6 48 9.1 91 91 NNE 18 30 30.03 1017 10 16.0934 0 0
6:35 pm 18:35 Cloudy 51 10.6 48 8.8 89 89 NE 14 22 30.03 1017 10 16.0934 0 0
6:55 pm 18:55 Cloudy 51 10.4 48 8.9 91 91 NE 13 20 30.03 1017 10 16.0934 0 0
7:15 pm 19:15 Cloudy 50 10.1 48 9 93 93 NNE 15 24 30.06 1018 10 16.0934 0 0
7:35 pm 19:35 Cloudy with Rain 50 10.1 48 9.1 94 94 NNE 12 19 30.06 1018 7 11.26538 0 0
7:55 pm 19:55 Cloudy with Rain 50 10 48 9.1 94 94 NNE 10 17 30.06 1018 7 11.26538 0.02 0.508
8:15 pm 20:15 Cloudy with Heavy Rain 50 10 49 9.2 95 95 NNE 9 15 30.06 1018 7 11.26538 0.02 0.508
8:35 pm 20:35 Cloudy with Light Rain 50 10.1 49 9.3 95 95 NNE 9 15 30.06 1018 10 16.0934 0.03 0.762
8:55 pm 20:55 Cloudy 50 10.2 49 9.5 95 95 NNE 9 15 30.09 1019 10 16.0934 0.03 0.762
9:15 pm 21:15 Cloudy with Drizzle 51 10.3 49 9.5 95 95 NNE 5 7 30.09 1019 10 16.0934 0 0
9:35 pm 21:35 Cloudy with Heavy Rain 51 10.3 49 9.5 95 95 N 6 9 30.09 1019 7 11.26538 0.02 0.508
9:55 pm 21:55 Cloudy with Drizzle 51 10.3 49 9.6 95 95 N 6 9 30.12 1020 7 11.26538 0.02 0.508
10:15 pm 22:15 Cloudy with Light Drizzle 51 10.5 50 9.9 96 96 NNW 7 11 30.12 1020 5 8.0467 0.01 0.254
10:35 pm 22:35 Cloudy 51 10.6 50 10 96 96 NNW 5 7 30.12 1020 7 11.26538 0.01 0.254
10:55 pm 22:55 Cloudy 51 10.7 50 10.1 96 96 N 7 11 30.12 1020 10 16.0934 0.01 0.254
11:15 pm 23:15 Cloudy 51 10.7 50 10.1 96 96 N 6 9 30.12 1020 10 16.0934 0 0
11:35 pm 23:35 Cloudy 51 10.7 50 10 95 95 N 5 7 30.12 1020 10 16.0934 0 0
11:55 pm 23:55 Cloudy 51 10.8 50 10.1 95 95 N 6 9 30.12 1020 10 16.0934 0 0

Powered by AerisWeather